• In Hungary
  • List of Countries
  • For 7 days
  • Water Temperature
  • Satellite Maps
  • Weather Map
  • News
  • Weather Widgets
  • user-avatar
    Login

    Hourly Weather Semyakovo

    Today, 21 May, Monday

    Time Temperature Precipitation Wind Pressure Humidity
    00:00 +11°C° 0 mm 3 mps 748 mmHg 91%
    01:00 +10°C° 0 mm 3 mps 749 mmHg 92%
    02:00 +9°C° 0 mm 3 mps 749 mmHg 92%
    03:00 +8°C° 0 mm 3 mps 750 mmHg 92%
    04:00 +8°C° 0 mm 3 mps 750 mmHg 93%
    05:00 +8°C° 0 mm 3 mps 751 mmHg 89%
    06:00 +9°C° 0 mm 3 mps 751 mmHg 85%
    07:00 +8°C° 0 mm 4 mps 752 mmHg 81%
    08:00 +10°C° 0 mm 4 mps 752 mmHg 77%
    09:00 +11°C° 0 mm 4 mps 752 mmHg 72%
    10:00 +12°C° 0 mm 4 mps 753 mmHg 68%
    11:00 +12°C° 0 mm 4 mps 753 mmHg 66%
    12:00 +13°C° 0 mm 4 mps 753 mmHg 63%
    13:00 +13°C° 0 mm 4 mps 753 mmHg 60%
    14:00 +14°C° 0 mm 4 mps 754 mmHg 57%
    15:00 +15°C° 0 mm 4 mps 754 mmHg 55%
    16:00 +17°C° 0 mm 4 mps 754 mmHg 52%
    17:00 +16°C° 0 mm 3 mps 754 mmHg 54%
    18:00 +16°C° 0 mm 3 mps 754 mmHg 56%
    19:00 +16°C° 0 mm 2 mps 755 mmHg 58%
    20:00 +14°C° 0 mm 2 mps 755 mmHg 59%
    21:00 +13°C° 0 mm 2 mps 755 mmHg 59%
    22:00 +10°C° 0 mm 2 mps 756 mmHg 60%
    23:00 +10°C° 0 mm 2 mps 756 mmHg 60%

    Tomorrow, 22 May, Tuesday

    Time Temperature Precipitation Wind Pressure Humidity
    00:00 +9°C° 0 mm 2 mps 756 mmHg 61%
    01:00 +9°C° 0 mm 2 mps 757 mmHg 61%
    02:00 +9°C° 0 mm 1 mps 757 mmHg 63%
    03:00 +9°C° 0 mm 1 mps 757 mmHg 65%
    04:00 +9°C° 0 mm 1 mps 758 mmHg 67%
    05:00 +9°C° 0 mm 2 mps 758 mmHg 66%
    06:00 +12°C° 0 mm 2 mps 758 mmHg 65%
    07:00 +13°C° 0 mm 2 mps 758 mmHg 65%
    08:00 +14°C° 0 mm 3 mps 758 mmHg 60%
    09:00 +17°C° 0 mm 3 mps 759 mmHg 55%
    10:00 +18°C° 0 mm 4 mps 759 mmHg 50%
    11:00 +19°C° 0 mm 4 mps 758 mmHg 49%
    12:00 +20°C° 0 mm 4 mps 758 mmHg 48%
    13:00 +21°C° 0 mm 5 mps 758 mmHg 46%
    14:00 +22°C° 0 mm 5 mps 758 mmHg 46%
    15:00 +22°C° 0 mm 5 mps 758 mmHg 46%
    16:00 +23°C° 0 mm 5 mps 757 mmHg 46%
    17:00 +22°C° 0 mm 4 mps 757 mmHg 52%
    18:00 +21°C° 0 mm 3 mps 757 mmHg 57%
    19:00 +21°C° 0 mm 2 mps 757 mmHg 62%
    20:00 +19°C° 0 mm 2 mps 757 mmHg 65%
    21:00 +18°C° 0 mm 2 mps 757 mmHg 68%
    22:00 +16°C° 0 mm 2 mps 757 mmHg 72%
    23:00 +15°C° 0 mm 2 mps 757 mmHg 73%

    Day after tomorrow, 23 May, Wednesday

    Time Temperature Precipitation Wind Pressure Humidity
    00:00 +15°C° 0 mm 2 mps 757 mmHg 75%
    01:00 +14°C° 0 mm 2 mps 757 mmHg 77%
    02:00 +14°C° 0 mm 2 mps 758 mmHg 78%
    03:00 +14°C° 0 mm 2 mps 758 mmHg 79%
    04:00 +13°C° 0 mm 2 mps 758 mmHg 81%
    05:00 +14°C° 0 mm 2 mps 758 mmHg 78%
    06:00 +15°C° 0 mm 2 mps 758 mmHg 75%
    07:00 +17°C° 0 mm 2 mps 758 mmHg 72%
    08:00 +18°C° 0 mm 2 mps 758 mmHg 66%
    09:00 +20°C° 0 mm 2 mps 758 mmHg 61%
    10:00 +22°C° 0 mm 3 mps 758 mmHg 55%
    11:00 +24°C° 0 mm 3 mps 758 mmHg 53%
    12:00 +23°C° 0 mm 4 mps 757 mmHg 50%
    13:00 +25°C° 0 mm 4 mps 757 mmHg 48%
    14:00 +25°C° 0 mm 4 mps 757 mmHg 49%
    15:00 +25°C° 0 mm 4 mps 756 mmHg 49%
    16:00 +25°C° 0 mm 5 mps 756 mmHg 50%
    17:00 +23°C° 0 mm 4 mps 755 mmHg 55%
    18:00 +23°C° 0 mm 4 mps 755 mmHg 60%
    19:00 +22°C° 0 mm 3 mps 755 mmHg 65%
    20:00 +20°C° 0 mm 3 mps 755 mmHg 68%
    21:00 +19°C° 0 mm 3 mps 754 mmHg 71%
    22:00 +17°C° 0 mm 3 mps 754 mmHg 73%
    23:00 +17°C° 0 mm 3 mps 754 mmHg 73%

    24 May, Thursday

    Time Temperature Precipitation Wind Pressure Humidity
    00:00 +17°C° 0 mm 3 mps 753 mmHg 73%
    01:00 +16°C° 0 mm 3 mps 753 mmHg 73%
    02:00 +16°C° 0 mm 3 mps 753 mmHg 74%
    03:00 +16°C° 0 mm 3 mps 753 mmHg 74%
    04:00 +16°C° 0 mm 3 mps 752 mmHg 74%
    05:00 +15°C° 0 mm 4 mps 752 mmHg 73%
    06:00 +17°C° 0 mm 4 mps 752 mmHg 73%
    07:00 +16°C° 0 mm 5 mps 751 mmHg 72%
    08:00 +17°C° 0.1 mm 5 mps 751 mmHg 71%
    09:00 +19°C° 0.1 mm 5 mps 750 mmHg 70%
    10:00 +19°C° 0.1 mm 5 mps 750 mmHg 69%
    11:00 +21°C° 0 mm 5 mps 750 mmHg 64%
    12:00 +22°C° 0 mm 6 mps 749 mmHg 58%
    13:00 +24°C° 0 mm 7 mps 749 mmHg 53%
    14:00 +24°C° 0.1 mm 7 mps 748 mmHg 52%
    15:00 +26°C° 0.1 mm 7 mps 748 mmHg 52%
    16:00 +26°C° 0.1 mm 7 mps 747 mmHg 52%
    17:00 +23°C° 0.8 mm 6 mps 747 mmHg 60%
    18:00 +22°C° 0.8 mm 5 mps 746 mmHg 68%
    19:00 +20°C° 0.8 mm 4 mps 746 mmHg 76%
    20:00 +19°C° 1.3 mm 3 mps 746 mmHg 80%
    21:00 +18°C° 1.3 mm 3 mps 745 mmHg 83%
    22:00 +17°C° 1.3 mm 2 mps 745 mmHg 87%
    23:00 +17°C° 1.2 mm 2 mps 745 mmHg 89%

    25 May, Friday

    Time Temperature Precipitation Wind Pressure Humidity
    00:00 +17°C° 1.2 mm 2 mps 744 mmHg 91%
    01:00 +16°C° 1.2 mm 1 mps 744 mmHg 93%
    02:00 +16°C° 0.2 mm 1 mps 744 mmHg 93%
    03:00 +15°C° 0.2 mm 1 mps 743 mmHg 94%
    04:00 +15°C° 0.2 mm 2 mps 743 mmHg 94%
    05:00 +15°C° 0.3 mm 2 mps 743 mmHg 93%
    06:00 +14°C° 0.3 mm 3 mps 743 mmHg 92%
    07:00 +14°C° 0.3 mm 4 mps 743 mmHg 91%
    08:00 +13°C° 0.2 mm 5 mps 743 mmHg 90%
    09:00 +10°C° 0.2 mm 6 mps 742 mmHg 89%
    10:00 +9°C° 0.2 mm 7 mps 742 mmHg 88%
    11:00 +8°C° 0.2 mm 7 mps 742 mmHg 88%
    12:00 +6°C° 0.2 mm 7 mps 742 mmHg 87%
    13:00 +5°C° 0.2 mm 8 mps 743 mmHg 87%
    14:00 +5°C° 0.4 mm 7 mps 743 mmHg 87%
    15:00 +5°C° 0.4 mm 7 mps 743 mmHg 88%
    16:00 +5°C° 0.4 mm 7 mps 743 mmHg 88%
    17:00 +5°C° 0.2 mm 7 mps 743 mmHg 88%
    18:00 +5°C° 0.2 mm 7 mps 743 mmHg 87%
    19:00 +6°C° 0.2 mm 8 mps 743 mmHg 87%
    20:00 +5°C° 0.1 mm 8 mps 743 mmHg 86%
    21:00 +5°C° 0.1 mm 7 mps 743 mmHg 86%
    22:00 +4°C° 0.1 mm 7 mps 743 mmHg 86%
    23:00 +4°C° 0.2 mm 8 mps 743 mmHg 86%

    26 May, Saturday

    Time Temperature Precipitation Wind Pressure Humidity
    00:00 +4°C° 0.2 mm 8 mps 743 mmHg 86%
    01:00 +4°C° 0.2 mm 8 mps 743 mmHg 86%
    02:00 +2°C° 0.6 mm 8 mps 743 mmHg 87%
    03:00 +2°C° 0.6 mm 8 mps 743 mmHg 87%
    04:00 +2°C° 0.6 mm 8 mps 743 mmHg 87%
    05:00 +2°C° 0.8 mm 9 mps 743 mmHg 87%
    06:00 +2°C° 0.8 mm 9 mps 743 mmHg 87%
    07:00 +2°C° 0.8 mm 10 mps 743 mmHg 86%
    08:00 +2°C° 1.1 mm 10 mps 743 mmHg 86%
    09:00 +2°C° 1.1 mm 10 mps 743 mmHg 86%
    10:00 +2°C° 1.1 mm 10 mps 743 mmHg 85%
    11:00 +2°C° 1.8 mm 10 mps 743 mmHg 86%
    12:00 +2°C° 1.8 mm 10 mps 743 mmHg 86%
    13:00 +2°C° 1.8 mm 9 mps 744 mmHg 86%
    14:00 +2°C° 1.9 mm 10 mps 744 mmHg 86%
    15:00 +2°C° 1.9 mm 10 mps 744 mmHg 87%
    16:00 +2°C° 1.9 mm 10 mps 744 mmHg 87%
    17:00 +2°C° 1.4 mm 10 mps 744 mmHg 87%
    18:00 +2°C° 1.4 mm 10 mps 744 mmHg 88%
    19:00 +2°C° 1.4 mm 10 mps 744 mmHg 88%
    20:00 +2°C° 0.8 mm 9 mps 744 mmHg 88%
    21:00 +2°C° 0.8 mm 9 mps 745 mmHg 88%
    22:00 +2°C° 0.8 mm 9 mps 745 mmHg 88%
    23:00 +2°C° 0.3 mm 9 mps 745 mmHg 88%
    Show more